COSMOS 2251 DEB, 40233

Orbit data source: Space-Track

COSMOS 2251 DEB, 40233 is space debris in LEO originally from a launch on Wed, 16 Jun 1993 UTC launched from the Plesetsk Missile And Space Complex (PKMTR). The debris from Iridium 33, an American commercial communications satellite, has been tracked extensively since its accidental collision with the defunct Russian satellite Cosmos 2251 in 2009. This event, occurring at high speed in low Earth orbit (LEO), generated thousands of pieces of space debris, significantly increasing the risk of further collisions. The Iridium 33 debris cloud has impacted space traffic management and orbital debris mitigation strategies, making it a subject of ongoing study in space situational awareness.

Loading next visibility...
Identifier
40233, 1993-036BVN
Orbit
LEO
Country
Flag of CISCIS
Related business
Manufacturer
Unknown
Mission
Spacecraft
Bus & Motor
Unknown
Mass
Unknown
Launch date (UTC)
1993-06-16 (33 years ago)
Launch vehicle
Unknown
Launch site
Plesetsk Missile And Space Complex (PKMTR)
Object type
Payload
Rocket body
Debris
Shape & HBR
Unknown shape, 0.1 m
Radar Cross Section
Small (<0.1 m²)

Expand to show TLE details & history
Last TLE update: 20 hours ago

TLE from 20 hours ago
0 COSMOS 2251 DEB
1 40233U 93036BVN 26123.58288844  .00003533  00000-0  73293-3 0  9995
2 40233  73.9391 191.1630 0046061 234.6586 125.0270 14.59916187612061
Epoch: 2026-05-03T13:59Z
TLE epoch observation values (Epoch: 2026-05-03T13:59:21.561Z)
Latitude
Longitude
119.8388°
Altitude
714.878 km
Speed
7.488 km/s
True Right ascension
12h 44m 39s
True Declination
0° 00' 00"
Sunlit
Object was in full shadow at epoch
Visualization orbit readout
Latitude
Unknown
Longitude
Unknown
Altitude
Unknown
Speed
Unknown
Apparent Right ascension
Unknown
Apparent Declination
Unknown
Sunlit
N/A
Visualization observer readout
Local Sidereal Time
17:59:31
Azimuth
Unknown
Elevation
Unknown
Doppler factor
Unknown
Orbital elements
Apogee altitude
723.612 km
Perigee altitude
658.489 km
Semi-major axis
7,069.188 km
Eccentricity
0.00461
Inclination
73.9391°
RAAN
191.163°
Arg. of periapsis
234.6586°
True anomaly
125.45779°
Mean anomaly
125.027°
Eccentric anomaly
125.24254°
Mean motion
3.65165 °/min
Orbital period
98.59 mins
BSTAR
0.00073293
Loading maneuver chart data...
Computing Atmospheric mass density...
Loading historical data...
Loading historical data...
Loading historical data...
Loading historical data...
Loading historical data...
Loading historical data...
Loading historical data...

Documentation

Showing up to 5 results
|